GW6176 Weather Reports


time (UTC)temp
F
wind
direction
speed
knots
gust
knots
rain 1hr
in
rain 24hr
in
rain mn
in
humidity
%
barometer
mb
20260504181129 73 176 13.9 24.3 0.00 0.00 0.00 51 1004.4
20260504180628 73 215 11.3 20.0 0.00 0.00 0.00 51 1004.3
20260504180126 73 207 13.0 20.9 0.00 0.00 0.00 51 1004.2
20260504175623 73 216 13.0 25.2 0.00 0.00 0.00 49 1004.3
20260504175120 73 195 9.6 22.6 0.00 0.00 0.00 49 1004.4
20260504174618 72 182 8.7 22.6 0.00 0.00 0.00 51 1004.4
20260504174114 73 206 7.8 13.0 0.00 0.00 0.00 52 1004.7
20260504173611 71 156 8.7 21.7 0.00 0.00 0.00 51 1004.7
20260504173109 72 193 6.1 13.9 0.00 0.00 0.00 53 1004.9
20260504172605 71 186 8.7 16.5 0.00 0.00 0.00 51 1004.7
20260504172102 71 217 11.3 17.4 0.00 0.00 0.00 51 1005.0
20260504171558 71 180 9.6 20.0 0.00 0.00 0.00 52 1005.1
20260504171055 70 214 7.8 12.2 0.00 0.00 0.00 51 1005.3
20260504170551 71 204 10.4 16.5 0.00 0.00 0.00 50 1005.4
20260504150935 66 212 7.8 10.4 0.00 0.00 0.00 54 1006.6
20260504150432 66 221 8.7 12.2 0.00 0.00 0.00 53 1006.5
20260504140858 62 217 7.8 11.3 0.00 0.00 0.00 60 1006.9
20260504140354 61 222 9.6 10.4 0.00 0.00 0.00 60 1007.0
20260504130319 57 191 6.1 10.4 0.00 0.00 0.00 66 1007.4
20260504120243 54 189 6.1 8.7 0.00 0.00 0.00 69 1007.6
20260504110710 50 182 5.2 7.8 0.00 0.00 0.00 75 1007.3
20260504110206 50 179 3.5 7.8 0.00 0.00 0.00 75 1007.7
20260504100130 50 181 3.5 6.1 0.00 0.00 0.00 74 1007.2
20260504081523 49 178 4.3 7.8 0.00 0.00 0.00 77 1007.8
20260504081019 48 174 3.5 7.0 0.00 0.00 0.00 77 1008.0
20260504080516 48 170 3.5 7.0 0.00 0.00 0.00 77 1007.9
20260504050334 49 168 3.5 7.0 0.00 0.00 0.00 75 1009.7
20260504045832 49 150 3.5 6.1 0.00 0.00 0.00 75 1009.9
20260504045332 49 162 4.3 7.8 0.00 0.00 0.00 75 1010.2
20260504044829 49 158 5.2 7.8 0.00 0.00 0.00 75 1009.7
20260504044326 49 149 5.2 9.6 0.00 0.00 0.00 75 1009.9
20260504043824 49 144 5.2 10.4 0.00 0.00 0.00 75 1010.1
20260504043320 49 161 2.6 7.8 0.00 0.00 0.00 75 1009.9
20260504042818 49 162 4.3 8.7 0.00 0.00 0.00 75 1010.0
20260504042314 49 155 4.3 5.2 0.00 0.00 0.00 75 1010.1
20260504041810 49 158 4.3 7.0 0.00 0.00 0.00 75 1010.3
20260504041306 49 148 4.3 5.2 0.00 0.00 0.00 75 1010.1
20260504040803 49 153 3.5 5.2 0.00 0.00 0.00 75 1010.2
20260504040300 49 167 5.2 7.0 0.00 0.00 0.00 76 1010.3
20260504035756 49 175 3.5 6.1 0.00 0.00 0.00 76 1010.2
20260504035254 49 156 4.3 6.1 0.00 0.00 0.00 76 1010.3
20260504034751 48 171 7.8 8.7 0.00 0.00 0.00 77 1010.3
20260504034248 48 178 3.5 5.2 0.00 0.00 0.00 77 1010.5
20260504033745 48 147 3.5 6.1 0.00 0.00 0.00 77 1010.5
20260504033243 48 147 5.2 7.8 0.00 0.00 0.00 78 1010.6
20260504032740 48 151 2.6 4.3 0.00 0.00 0.00 78 1010.8
20260504032237 48 139 3.5 6.1 0.00 0.00 0.00 78 1010.7
20260504031733 48 158 4.3 5.2 0.00 0.00 0.00 78 1010.6
20260504031231 48 167 3.5 6.1 0.00 0.00 0.00 79 1010.7
20260504030726 48 139 5.2 6.1 0.00 0.00 0.00 79 1010.6
20260504030224 48 146 3.5 7.0 0.00 0.00 0.00 79 1010.7
20260504025720 48 127 6.1 6.1 0.00 0.00 0.00 79 1010.8
20260504025217 48 153 5.2 7.8 0.00 0.00 0.00 79 1010.7
20260504024714 48 142 5.2 7.8 0.00 0.00 0.00 79 1011.0
20260504024211 48 147 5.2 9.6 0.00 0.00 0.00 78 1011.0
20260504023708 48 140 6.1 11.3 0.00 0.00 0.00 78 1011.0
20260504023203 48 137 6.1 9.6 0.00 0.00 0.00 78 1011.1
20260504022700 48 154 2.6 7.0 0.00 0.00 0.00 78 1011.0
20260504022156 48 148 6.1 9.6 0.00 0.00 0.00 78 1011.0
20260504021654 49 152 7.0 7.8 0.00 0.00 0.00 78 1011.2
20260504021150 49 172 5.2 10.4 0.00 0.00 0.00 77 1011.2
20260504020647 49 141 6.1 8.7 0.00 0.00 0.00 77 1011.0
20260504020143 49 156 7.8 7.8 0.00 0.00 0.00 77 1011.1
20260504015640 49 164 9.6 11.3 0.00 0.00 0.00 77 1011.1
20260504015137 49 163 3.5 9.6 0.00 0.00 0.00 76 1011.0
20260504014632 49 169 4.3 8.7 0.00 0.00 0.00 76 1011.0
20260504014130 49 164 6.1 9.6 0.00 0.00 0.00 75 1011.1
20260504013627 49 156 4.3 7.8 0.00 0.00 0.00 75 1010.9
20260504013124 50 142 5.2 9.6 0.00 0.00 0.00 74 1011.0
20260504012621 50 135 7.8 9.6 0.00 0.00 0.00 74 1011.3
20260504012120 50 107 3.5 13.0 0.00 0.00 0.00 73 1011.0
20260504011616 50 155 11.3 14.8 0.00 0.00 0.00 74 1011.2
20260504011112 50 161 6.1 11.3 0.00 0.00 0.00 73 1011.2
20260504010608 50 149 6.1 7.0 0.00 0.00 0.00 73 1011.1
20260504010104 50 139 5.2 10.4 0.00 0.00 0.00 73 1011.2
20260504005601 50 179 5.2 11.3 0.00 0.00 0.00 73 1011.2
20260504005058 50 155 5.2 11.3 0.00 0.00 0.00 73 1011.2
20260504004556 50 153 4.3 10.4 0.00 0.00 0.00 74 1011.1
20260504004053 50 156 5.2 11.3 0.00 0.00 0.00 74 1011.1
20260504003549 50 137 8.7 13.0 0.00 0.00 0.00 74 1011.4
20260504003046 50 156 7.8 13.9 0.00 0.00 0.00 74 1011.2
20260504002542 50 180 5.2 8.7 0.00 0.00 0.00 74 1011.4
20260504002040 50 145 6.1 8.7 0.00 0.00 0.00 74 1011.4
20260504001538 50 164 5.2 10.4 0.00 0.00 0.00 74 1011.3
20260504001034 50 157 7.0 8.7 0.00 0.00 0.00 75 1011.5
20260504000531 50 149 5.2 11.3 0.00 0.00 0.00 74 1011.4
20260504000029 50 154 7.8 13.0 0.00 0.00 0.00 74 1011.7
20260503235527 50 128 6.1 8.7 0.00 0.00 0.00 74 1011.7
20260503235023 50 143 4.3 14.8 0.00 0.00 0.00 73 1011.8
20260503234521 50 151 7.8 12.2 0.00 0.00 0.00 73 1011.9
20260503234019 50 172 6.1 12.2 0.00 0.00 0.00 72 1011.8
20260503233515 50 148 4.3 13.9 0.00 0.00 0.00 72 1011.9
20260503233011 50 176 7.8 12.2 0.00 0.00 0.00 72 1011.9
20260503232508 50 170 4.3 10.4 0.00 0.00 0.00 72 1011.8
20260503232006 50 140 13.0 15.6 0.00 0.00 0.00 72 1011.9
20260503231504 51 137 8.7 13.9 0.00 0.00 0.00 72 1012.2
20260503231000 51 185 8.7 10.4 0.00 0.00 0.00 71 1012.0
20260503230456 51 128 8.7 14.8 0.00 0.00 0.00 72 1012.1
20260503225954 50 151 13.0 14.8 0.00 0.00 0.00 73 1012.2
20260503225450 50 142 9.6 12.2 0.00 0.00 0.00 74 1012.4
20260503224946 50 175 5.2 12.2 0.00 0.00 0.00 74 1012.1
20260503224443 50 162 8.7 10.4 0.00 0.00 0.00 75 1012.4
20260503223941 50 145 8.7 9.6 0.00 0.00 0.00 75 1012.4
20260503223439 50 147 12.2 13.0 0.00 0.00 0.00 75 1012.3
20260503222934 50 143 7.8 13.9 0.00 0.00 0.00 75 1012.6
20260503222433 50 175 7.8 7.8 0.00 0.00 0.00 75 1012.6
20260503221931 50 147 6.1 12.2 0.00 0.00 0.00 75 1012.7
20260503221429 50 205 6.1 11.3 0.00 0.00 0.00 76 1012.6
20260503220925 50 164 5.2 12.2 0.00 0.00 0.00 76 1012.8
20260503220421 50 199 5.2 9.6 0.00 0.00 0.00 75 1012.8
20260503215919 50 173 8.7 13.0 0.00 0.00 0.00 75 1012.5
20260503215416 50 138 7.0 9.6 0.00 0.00 0.00 75 1012.5
20260503214913 50 190 3.5 10.4 0.00 0.00 0.00 74 1012.9
20260503214410 50 130 7.0 9.6 0.00 0.00 0.00 74 1012.9
20260503213908 50 172 9.6 12.2 0.00 0.00 0.00 73 1012.9
20260503213406 50 180 10.4 13.9 0.00 0.00 0.00 73 1012.8
20260503212902 50 180 5.2 17.4 0.00 0.00 0.00 72 1012.9
20260503212400 50 185 7.8 15.6 0.00 0.00 0.00 72 1013.1
20260503211857 50 176 6.1 13.9 0.00 0.00 0.00 72 1013.5
20260503211353 50 196 8.7 14.8 0.00 0.00 0.00 71 1013.5
20260503210848 50 212 7.0 14.8 0.00 0.00 0.00 72 1013.8
20260503210346 51 186 7.8 9.6 0.00 0.00 0.00 70 1013.9
20260503205841 51 222 9.6 16.5 0.00 0.00 0.00 69 1013.8
20260503205338 51 212 10.4 20.0 0.00 0.00 0.00 67 1014.1
20260503204834 52 214 15.6 24.3 0.00 0.00 0.00 66 1014.3
20260503204332 52 215 10.4 23.5 0.00 0.00 0.00 66 1014.2
20260503203829 52 235 12.2 20.9 0.00 0.00 0.00 66 1014.4
20260503203326 52 235 9.6 17.4 0.00 0.00 0.00 66 1014.4
20260503202823 52 216 15.6 25.2 0.00 0.00 0.00 64 1014.3
20260503202321 53 243 10.4 21.7 0.00 0.00 0.00 65 1014.5
20260503201819 53 223 13.9 30.4 0.00 0.00 0.00 63 1014.5
20260503201316 53 240 13.9 24.3 0.00 0.00 0.00 62 1014.4
20260503200813 53 231 12.2 24.3 0.00 0.00 0.00 60 1014.6
20260503200309 54 257 12.2 24.3 0.00 0.00 0.00 58 1014.5
20260503195807 55 251 13.0 19.1 0.00 0.00 0.00 58 1014.4
20260503195304 55 218 17.4 23.5 0.00 0.00 0.00 55 1014.2
20260503194800 57 230 15.6 30.4 0.00 0.00 0.00 53 1014.1
20260503194256 59 218 14.8 19.1 0.00 0.00 0.00 47 1013.8
20260503193752 59 209 6.1 17.4 0.00 0.00 0.00 45 1013.9
20260503193248 59 209 4.3 16.5 0.00 0.00 0.00 45 1014.1
20260503192744 59 220 18.2 18.2 0.00 0.00 0.00 44 1014.0
20260503192239 59 230 8.7 20.0 0.00 0.00 0.00 45 1014.1
20260503191737 59 211 17.4 25.2 0.00 0.00 0.00 43 1014.2
20260503191234 59 216 15.6 24.3 0.00 0.00 0.00 45 1014.0
20260503190731 59 220 15.6 19.1 0.00 0.00 0.00 43 1014.1
20260503190227 59 217 11.3 22.6 0.00 0.00 0.00 44 1014.1
20260503185725 59 213 11.3 16.5 0.00 0.00 0.00 44 1014.0
20260503185220 59 221 13.0 14.8 0.00 0.00 0.00 46 1014.2
20260503184715 59 239 4.3 20.0 0.00 0.00 0.00 45 1014.3
20260503184211 59 206 18.2 21.7 0.00 0.00 0.00 43 1014.3
20260503183708 59 266 11.3 20.0 0.00 0.00 0.00 44 1014.5
20260503183205 60 211 16.5 19.1 0.00 0.00 0.00 42 1014.4
20260503182704 59 204 10.4 21.7 0.00 0.00 0.00 44 1014.5
20260503182202 59 238 7.8 26.1 0.00 0.00 0.00 44 1014.5
20260503181658 59 210 12.2 18.2 0.00 0.00 0.00 41 1014.5